QPF
0.03 0.02 0.02 0.02 0.02 0.03 0.03 0.03 0.03 0.02 0.01 0.01 0.01 0.01 0.01 0.01 0.01 0.02 0.02 0.02 0.02 0.03 0.05 0.07 0.09 0.08 0.09 0.09 0.07 0.06 0.05 0.05 0.05 0.03 0.03 0.02 0.02 0.02 0.02 0.02 0.02 0.02 0.03
0.03 0.03 0.03 0.02 0.02 0.02 0.02 0.02 0.02 0.02 0.01 0.02 0.01 0.01 0.02 0.02 0.03 0.03 0.02 0.02 0.03 0.04 0.04 0.05 0.07 0.07 0.07 0.07 0.07 0.06 0.05 0.05 0.04 0.03 0.02 0.01 0.01 0.01 0.02 0.01 0.02 0.01 0.02
0.04 0.04 0.03 0.02 0.03 0.03 0.02 0.02 0.02 0.02 0.02 0.01 0.01 0.02 0.03 0.03 0.03 0.02 0.03 0.03 0.04 0.04 0.03 0.03 0.04 0.05 0.06 0.06 0.06 0.05 0.06 0.05 0.04 0.03 0.02 0.01 0.01 0.01 0.02 0.02 0.02 0.02 0.04
0.05 0.03 0.02 0.01 0.02 0.03 0.03 0.03 0.03 0.03 0.03 0.02 0.02 0.02 0.03 0.03 0.02 0.03 0.03 0.03 0.03 0.04 0.03 0.02 0.03 0.03 0.04 0.05 0.05 0.05 0.05 0.05 0.04 0.03 0.02 0.02 0.01 0.01 0.01 0.01 0.02 0.01 0.03
0.04 0.02 0.01 0.02 0.02 0.03 0.03 0.03 0.03 0.03 0.02 0.02 0.02 0.02 0.03 0.02 0.02 0.03 0.04 0.05 0.05 0.05 0.04 0.03 0.03 0.05 0.05 0.06 0.06 0.06 0.06 0.06 0.06 0.05 0.03 0.02 0.02 0.02 0.01 0.02 0.01 0.01 0.02
0.03 0.03 0.03 0.03 0.03 0.03 0.03 0.02 0.02 0.02 0.02 0.02 0.02 0.02 0.02 0.01 0.02 0.03 0.04 0.05 0.06 0.07 0.07 0.05 0.07 0.08 0.08 0.09 0.08 0.07 0.06 0.06 0.06 0.05 0.04 0.02 0.02 0.01 0.01 0.02 0.02 0.02 0.02
0.04 0.04 0.03 0.03 0.02 0.02 0.02 0.02 0.02 0.01 0.01 0.01 0.01 0.02 0.01 0.01 0.01 0.02 0.02 0.03 0.04 0.07 0.09 0.07 0.07 0.08 0.07 0.07 0.07 0.06 0.04 0.03 0.03 0.03 0.03 0.03 0.02 0.02 0.02 0.02 0.02 0.02 0.02
0.05 0.03 0.02 0.02 0.01 0.01 0.01 0.00 0.01 0.01 0.01 0.01 0.02 0.02 0.02 0.02 0.02 0.01 0.02 0.02 0.04 0.05 0.07 0.08 0.07 0.07 0.06 0.05 0.06 0.05 0.03 0.02 0.03 0.03 0.03 0.03 0.03 0.03 0.03 0.03 0.02 0.02 0.02
0.05 0.04 0.03 0.02 0.02 0.01 0.01 0.01 0.01 0.01 0.01 0.02 0.02 0.02 0.02 0.02 0.02 0.02 0.03 0.02 0.02 0.04 0.07 0.07 0.07 0.07 0.07 0.06 0.06 0.05 0.04 0.03 0.04 0.05 0.05 0.04 0.04 0.04 0.04 0.03 0.03 0.03 0.03
0.02 0.02 0.01 0.01 0.01 0.01 0.01 0.01 0.01 0.01 0.01 0.02 0.02 0.02 0.02 0.02 0.02 0.02 0.02 0.02 0.03 0.03 0.04 0.04 0.07 0.10 0.10 0.08 0.07 0.06 0.05 0.04 0.03 0.04 0.04 0.04 0.04 0.03 0.04 0.03 0.03 0.03 0.03
0.01 0.01 0.01 0.01 0.01 0.01 0.02 0.01 0.01 0.01 0.02 0.02 0.01 0.01 0.01 0.01 0.01 0.02 0.02 0.02 0.02 0.02 0.02 0.03 0.04 0.08 0.09 0.09 0.08 0.06 0.05 0.04 0.03 0.03 0.04 0.04 0.05 0.04 0.03 0.02 0.02 0.03 0.03
0.01 0.01 0.01 0.01 0.01 0.01 0.02 0.02 0.02 0.02 0.01 0.01 0.01 0.01 0.01 0.01 0.01 0.02 0.02 0.02 0.03 0.04 0.03 0.03 0.04 0.06 0.06 0.05 0.05 0.05 0.06 0.05 0.05 0.05 0.06 0.05 0.04 0.03 0.03 0.02 0.02 0.02 0.03
0.01 0.01 0.01 0.01 0.01 0.01 0.02 0.03 0.02 0.01 0.01 0.01 0.01 0.01 0.01 0.02 0.03 0.03 0.03 0.03 0.04 0.05 0.05 0.05 0.05 0.06 0.05 0.04 0.04 0.04 0.05 0.05 0.05 0.05 0.04 0.03 0.02 0.01 0.02 0.02 0.03 0.04 0.03
0.01 0.01 0.01 0.01 0.01 0.02 0.02 0.02 0.02 0.02 0.02 0.02 0.02 0.02 0.02 0.02 0.03 0.03 0.03 0.03 0.04 0.04 0.04 0.06 0.06 0.05 0.04 0.03 0.03 0.03 0.03 0.04 0.04 0.03 0.02 0.02 0.01 0.02 0.03 0.03 0.03 0.03 0.03
0.02 0.02 0.02 0.02 0.03 0.03 0.03 0.03 0.04 0.04 0.05 0.04 0.05 0.05 0.04 0.04 0.04 0.04 0.04 0.05 0.06 0.06 0.06 0.07 0.06 0.05 0.04 0.03 0.02 0.02 0.02 0.02 0.03 0.03 0.02 0.02 0.02 0.02 0.02 0.03 0.02 0.02 0.03
0.03 0.03 0.03 0.02 0.02 0.02 0.02 0.03 0.04 0.05 0.04 0.04 0.04 0.04 0.03 0.03 0.04 0.04 0.05 0.05 0.06 0.09 0.07 0.06 0.04 0.04 0.03 0.03 0.03 0.02 0.01 0.01 0.01 0.03 0.03 0.03 0.02 0.02 0.02 0.02 0.02 0.02 0.02
0.04 0.04 0.03 0.03 0.02 0.01 0.01 0.02 0.03 0.03 0.02 0.02 0.02 0.02 0.03 0.03 0.03 0.03 0.03 0.03 0.04 0.06 0.06 0.05 0.02 0.02 0.02 0.01 0.01 0.01 0.01 0.01 0.01 0.01 0.02 0.03 0.03 0.02 0.02 0.02 0.02 0.02 0.02
0.08 0.07 0.05 0.04 0.03 0.02 0.02 0.02 0.02 0.03 0.02 0.02 0.02 0.03 0.02 0.03 0.03 0.03 0.03 0.03 0.03 0.03 0.03 0.03 0.02 0.01 0.01 0.01 0.01 0.00 0.00 0.00 0.00 0.00 0.01 0.02 0.03 0.03 0.03 0.02 0.02 0.03 0.03
0.09 0.10 0.09 0.07 0.05 0.03 0.03 0.03 0.04 0.04 0.04 0.02 0.03 0.03 0.03 0.04 0.06 0.06 0.04 0.02 0.02 0.03 0.02 0.02 0.01 0.01 0.01 0.01 0.01 0.00 0.00 0.00 0.00 0.00 0.00 0.01 0.01 0.03 0.04 0.05 0.04 0.04 0.04
0.08 0.10 0.11 0.10 0.09 0.07 0.04 0.04 0.04 0.05 0.05 0.05 0.04 0.04 0.05 0.06 0.06 0.06 0.05 0.03 0.02 0.02 0.02 0.01 0.01 0.01 0.01 0.01 0.01 0.01 0.01 0.01 0.01 0.01 0.01 0.01 0.01 0.01 0.03 0.05 0.06 0.06 0.07
0.06 0.07 0.08 0.07 0.07 0.08 0.07 0.05 0.05 0.06 0.06 0.06 0.07 0.08 0.07 0.07 0.07 0.06 0.05 0.04 0.02 0.01 0.01 0.02 0.02 0.02 0.02 0.01 0.01 0.01 0.01 0.01 0.01 0.01 0.01 0.01 0.01 0.01 0.01 0.03 0.04 0.05 0.08
0.05 0.05 0.05 0.04 0.04 0.05 0.06 0.06 0.05 0.05 0.04 0.04 0.05 0.06 0.06 0.05 0.04 0.04 0.04 0.03 0.02 0.01 0.02 0.02 0.02 0.02 0.02 0.02 0.01 0.01 0.01 0.01 0.01 0.01 0.01 0.01 0.01 0.02 0.02 0.02 0.02 0.03 0.04
0.06 0.06 0.06 0.05 0.05 0.05 0.05 0.05 0.04 0.03 0.03 0.03 0.03 0.03 0.02 0.02 0.02 0.03 0.02 0.01 0.01 0.01 0.01 0.01 0.01 0.01 0.01 0.01 0.02 0.02 0.02 0.01 0.01 0.01 0.02 0.02 0.02 0.02 0.02 0.02 0.02 0.03 0.03
0.10 0.07 0.07 0.06 0.06 0.06 0.05 0.04 0.03 0.03 0.02 0.02 0.02 0.02 0.02 0.02 0.02 0.02 0.01 0.01 0.01 0.01 0.01 0.01 0.01 0.01 0.01 0.01 0.01 0.01 0.01 0.01 0.01 0.01 0.01 0.01 0.01 0.01 0.01 0.01 0.01 0.02 0.03
0.11 0.09 0.06 0.05 0.04 0.03 0.04 0.04 0.03 0.02 0.02 0.01 0.01 0.02 0.02 0.02 0.02 0.01 0.01 0.01 0.01 0.01 0.00 0.00 0.01 0.00 0.01 0.01 0.01 0.01 0.01 0.01 0.01 0.01 0.01 0.01 0.01 0.01 0.01 0.01 0.01 0.01 0.02
0.08 0.07 0.05 0.04 0.03 0.03 0.03 0.03 0.02 0.02 0.01 0.01 0.02 0.02 0.02 0.02 0.02 0.01 0.01 0.01 0.00 0.00 0.01 0.01 0.01 0.00 0.01 0.01 0.01 0.01 0.01 0.01 0.01 0.02 0.02 0.01 0.01 0.02 0.02 0.02 0.02 0.02 0.02
MSLP
1009.94 1010.64 1011.32 1011.95 1012.50 1012.97 1013.36 1013.71 1014.05 1014.40 1014.80 1015.25 1015.72 1016.21 1016.67 1017.08 1017.41 1017.66 1017.82 1017.92 1017.98 1018.03 1018.09 1018.17 1018.28 1018.42 1018.58 1018.74 1018.90 1019.04 1019.14 1019.20 1019.21 1019.15 1019.03 1018.83 1018.57 1018.24 1017.87 1017.48 1017.08 1016.71 1016.39
1009.57 1010.29 1011.00 1011.67 1012.26 1012.78 1013.25 1013.67 1014.09 1014.53 1015.00 1015.51 1016.03 1016.55 1017.04 1017.46 1017.81 1018.08 1018.28 1018.41 1018.51 1018.59 1018.68 1018.78 1018.90 1019.04 1019.19 1019.33 1019.47 1019.58 1019.66 1019.71 1019.70 1019.64 1019.51 1019.32 1019.05 1018.72 1018.35 1017.94 1017.53 1017.13 1016.77
1009.28 1010.03 1010.76 1011.45 1012.08 1012.65 1013.16 1013.66 1014.15 1014.66 1015.20 1015.76 1016.33 1016.88 1017.39 1017.84 1018.21 1018.50 1018.72 1018.88 1019.01 1019.13 1019.25 1019.37 1019.51 1019.65 1019.79 1019.92 1020.04 1020.14 1020.20 1020.24 1020.23 1020.17 1020.05 1019.86 1019.61 1019.29 1018.91 1018.50 1018.07 1017.65 1017.26
1009.05 1009.83 1010.58 1011.30 1011.96 1012.56 1013.13 1013.68 1014.23 1014.81 1015.40 1016.02 1016.63 1017.21 1017.74 1018.21 1018.59 1018.90 1019.14 1019.33 1019.49 1019.63 1019.77 1019.91 1020.05 1020.20 1020.33 1020.44 1020.54 1020.62 1020.67 1020.70 1020.69 1020.64 1020.54 1020.38 1020.15 1019.85 1019.49 1019.08 1018.65 1018.21 1017.80
1008.88 1009.68 1010.46 1011.20 1011.89 1012.53 1013.14 1013.74 1014.35 1014.97 1015.62 1016.28 1016.92 1017.53 1018.08 1018.56 1018.96 1019.28 1019.54 1019.74 1019.92 1020.08 1020.23 1020.37 1020.51 1020.64 1020.75 1020.84 1020.91 1020.96 1021.00 1021.01 1021.00 1020.97 1020.89 1020.76 1020.57 1020.32 1019.99 1019.61 1019.19 1018.76 1018.32
1008.73 1009.57 1010.38 1011.16 1011.88 1012.55 1013.20 1013.84 1014.49 1015.16 1015.84 1016.53 1017.19 1017.82 1018.38 1018.87 1019.28 1019.61 1019.88 1020.10 1020.28 1020.45 1020.60 1020.73 1020.86 1020.96 1021.04 1021.09 1021.12 1021.13 1021.14 1021.14 1021.13 1021.11 1021.07 1020.98 1020.84 1020.64 1020.36 1020.02 1019.63 1019.21 1018.77
1008.60 1009.48 1010.33 1011.14 1011.89 1012.60 1013.28 1013.96 1014.64 1015.34 1016.04 1016.75 1017.43 1018.06 1018.62 1019.12 1019.53 1019.86 1020.14 1020.37 1020.56 1020.73 1020.87 1020.99 1021.09 1021.16 1021.19 1021.20 1021.18 1021.15 1021.12 1021.10 1021.09 1021.09 1021.07 1021.03 1020.95 1020.81 1020.59 1020.30 1019.95 1019.54 1019.11
1008.49 1009.40 1010.29 1011.13 1011.92 1012.66 1013.37 1014.07 1014.77 1015.49 1016.20 1016.91 1017.59 1018.21 1018.77 1019.26 1019.67 1020.01 1020.30 1020.54 1020.74 1020.91 1021.05 1021.16 1021.23 1021.26 1021.26 1021.21 1021.15 1021.08 1021.01 1020.97 1020.96 1020.96 1020.98 1020.99 1020.96 1020.87 1020.71 1020.47 1020.16 1019.77 1019.34
1008.41 1009.34 1010.25 1011.12 1011.93 1012.70 1013.43 1014.15 1014.87 1015.58 1016.29 1016.99 1017.65 1018.26 1018.81 1019.29 1019.70 1020.05 1020.35 1020.60 1020.82 1021.00 1021.15 1021.26 1021.32 1021.32 1021.28 1021.20 1021.09 1020.98 1020.89 1020.84 1020.82 1020.84 1020.88 1020.92 1020.94 1020.90 1020.79 1020.59 1020.30 1019.93 1019.50
1008.35 1009.29 1010.21 1011.09 1011.92 1012.71 1013.46 1014.19 1014.90 1015.61 1016.31 1016.98 1017.62 1018.21 1018.74 1019.21 1019.62 1019.98 1020.30 1020.58 1020.82 1021.02 1021.19 1021.30 1021.36 1021.36 1021.30 1021.20 1021.07 1020.94 1020.84 1020.77 1020.75 1020.78 1020.85 1020.92 1020.97 1020.96 1020.88 1020.70 1020.42 1020.05 1019.60
1008.33 1009.25 1010.17 1011.05 1011.88 1012.68 1013.43 1014.16 1014.88 1015.57 1016.25 1016.90 1017.51 1018.08 1018.59 1019.05 1019.47 1019.84 1020.17 1020.48 1020.75 1020.99 1021.17 1021.31 1021.38 1021.39 1021.33 1021.22 1021.10 1020.97 1020.86 1020.80 1020.79 1020.83 1020.91 1021.00 1021.07 1021.08 1021.00 1020.83 1020.54 1020.16 1019.69
1008.34 1009.23 1010.12 1010.98 1011.81 1012.60 1013.36 1014.09 1014.80 1015.48 1016.14 1016.77 1017.36 1017.90 1018.40 1018.85 1019.27 1019.65 1020.00 1020.33 1020.63 1020.90 1021.11 1021.27 1021.36 1021.39 1021.35 1021.26 1021.15 1021.04 1020.95 1020.90 1020.91 1020.96 1021.05 1021.15 1021.22 1021.23 1021.15 1020.96 1020.66 1020.24 1019.74
1008.38 1009.21 1010.06 1010.89 1011.71 1012.49 1013.24 1013.98 1014.68 1015.36 1016.01 1016.62 1017.19 1017.72 1018.21 1018.65 1019.07 1019.46 1019.82 1020.16 1020.48 1020.77 1021.00 1021.18 1021.29 1021.34 1021.33 1021.27 1021.18 1021.10 1021.04 1021.02 1021.05 1021.12 1021.22 1021.32 1021.38 1021.37 1021.27 1021.06 1020.73 1020.29 1019.75
1008.42 1009.18 1009.98 1010.77 1011.57 1012.34 1013.10 1013.84 1014.55 1015.24 1015.88 1016.49 1017.05 1017.57 1018.05 1018.49 1018.90 1019.28 1019.65 1019.99 1020.31 1020.59 1020.83 1021.02 1021.15 1021.21 1021.22 1021.20 1021.15 1021.10 1021.08 1021.10 1021.15 1021.24 1021.34 1021.43 1021.48 1021.46 1021.33 1021.09 1020.74 1020.27 1019.71
1008.43 1009.12 1009.86 1010.62 1011.39 1012.16 1012.93 1013.68 1014.41 1015.11 1015.77 1016.38 1016.95 1017.47 1017.94 1018.37 1018.77 1019.15 1019.49 1019.82 1020.12 1020.38 1020.61 1020.78 1020.91 1020.99 1021.02 1021.03 1021.02 1021.02 1021.04 1021.09 1021.17 1021.28 1021.39 1021.47 1021.51 1021.46 1021.31 1021.05 1020.67 1020.19 1019.62
1008.37 1009.00 1009.68 1010.41 1011.17 1011.94 1012.72 1013.49 1014.24 1014.97 1015.65 1016.28 1016.86 1017.39 1017.86 1018.29 1018.67 1019.02 1019.34 1019.63 1019.90 1020.13 1020.33 1020.48 1020.60 1020.68 1020.73 1020.77 1020.80 1020.85 1020.91 1021.00 1021.12 1021.24 1021.36 1021.44 1021.46 1021.40 1021.23 1020.95 1020.57 1020.09 1019.53
1008.24 1008.80 1009.44 1010.14 1010.89 1011.66 1012.46 1013.25 1014.03 1014.78 1015.49 1016.15 1016.75 1017.28 1017.76 1018.18 1018.55 1018.88 1019.17 1019.43 1019.65 1019.84 1020.01 1020.14 1020.25 1020.34 1020.41 1020.48 1020.56 1020.65 1020.76 1020.89 1021.04 1021.18 1021.31 1021.39 1021.40 1021.32 1021.15 1020.86 1020.48 1020.01 1019.48
1008.00 1008.52 1009.12 1009.79 1010.52 1011.31 1012.11 1012.92 1013.73 1014.51 1015.24 1015.92 1016.54 1017.10 1017.58 1018.00 1018.37 1018.68 1018.95 1019.18 1019.37 1019.53 1019.68 1019.80 1019.91 1020.01 1020.11 1020.22 1020.34 1020.49 1020.65 1020.82 1021.00 1021.17 1021.30 1021.38 1021.38 1021.30 1021.12 1020.84 1020.48 1020.03 1019.53
1007.66 1008.13 1008.70 1009.35 1010.08 1010.85 1011.66 1012.49 1013.31 1014.10 1014.86 1015.56 1016.20 1016.77 1017.27 1017.71 1018.08 1018.39 1018.65 1018.87 1019.05 1019.21 1019.35 1019.48 1019.60 1019.74 1019.88 1020.04 1020.22 1020.42 1020.64 1020.86 1021.07 1021.25 1021.39 1021.47 1021.47 1021.38 1021.20 1020.93 1020.59 1020.17 1019.71
1007.22 1007.66 1008.20 1008.83 1009.53 1010.30 1011.10 1011.92 1012.75 1013.55 1014.32 1015.03 1015.69 1016.28 1016.80 1017.25 1017.64 1017.97 1018.25 1018.48 1018.69 1018.87 1019.04 1019.20 1019.37 1019.56 1019.76 1019.99 1020.23 1020.49 1020.75 1021.01 1021.24 1021.44 1021.58 1021.65 1021.65 1021.56 1021.39 1021.14 1020.82 1020.44 1020.02
1006.70 1007.11 1007.62 1008.23 1008.91 1009.65 1010.44 1011.24 1012.05 1012.85 1013.61 1014.34 1015.00 1015.61 1016.16 1016.64 1017.07 1017.43 1017.75 1018.03 1018.28 1018.51 1018.74 1018.97 1019.20 1019.46 1019.74 1020.03 1020.34 1020.65 1020.96 1021.25 1021.50 1021.70 1021.84 1021.91 1021.90 1021.81 1021.64 1021.41 1021.12 1020.78 1020.41
1006.13 1006.52 1007.00 1007.58 1008.23 1008.94 1009.69 1010.47 1011.25 1012.03 1012.78 1013.50 1014.18 1014.80 1015.38 1015.90 1016.37 1016.79 1017.17 1017.52 1017.84 1018.15 1018.45 1018.76 1019.08 1019.42 1019.77 1020.13 1020.50 1020.87 1021.21 1021.52 1021.77 1021.97 1022.10 1022.16 1022.13 1022.04 1021.88 1021.67 1021.42 1021.12 1020.81
1005.52 1005.89 1006.36 1006.90 1007.52 1008.20 1008.91 1009.65 1010.40 1011.14 1011.88 1012.59 1013.27 1013.91 1014.51 1015.08 1015.60 1016.08 1016.54 1016.96 1017.37 1017.76 1018.16 1018.56 1018.97 1019.38 1019.81 1020.24 1020.65 1021.05 1021.41 1021.73 1021.99 1022.17 1022.28 1022.32 1022.28 1022.19 1022.04 1021.85 1021.63 1021.38 1021.12
1004.89 1005.26 1005.71 1006.24 1006.82 1007.46 1008.13 1008.83 1009.54 1010.25 1010.96 1011.66 1012.34 1012.99 1013.62 1014.23 1014.80 1015.36 1015.88 1016.39 1016.89 1017.37 1017.86 1018.34 1018.83 1019.32 1019.81 1020.28 1020.74 1021.16 1021.53 1021.84 1022.08 1022.24 1022.33 1022.34 1022.29 1022.19 1022.05 1021.89 1021.70 1021.51 1021.30
1004.27 1004.64 1005.08 1005.59 1006.15 1006.75 1007.38 1008.04 1008.72 1009.40 1010.08 1010.76 1011.44 1012.11 1012.77 1013.41 1014.04 1014.65 1015.25 1015.84 1016.41 1016.98 1017.54 1018.10 1018.66 1019.21 1019.74 1020.25 1020.73 1021.16 1021.52 1021.82 1022.04 1022.18 1022.24 1022.24 1022.18 1022.08 1021.94 1021.80 1021.65 1021.50 1021.35
1003.65 1004.04 1004.48 1004.97 1005.51 1006.08 1006.68 1007.31 1007.95 1008.60 1009.27 1009.94 1010.62 1011.30 1011.98 1012.66 1013.34 1014.01 1014.67 1015.32 1015.97 1016.60 1017.23 1017.85 1018.46 1019.05 1019.62 1020.16 1020.64 1021.07 1021.43 1021.72 1021.92 1022.04 1022.08 1022.06 1021.99 1021.88 1021.76 1021.63 1021.51 1021.39 1021.29
Thickness
5775 5772 5769 5767 5765 5763 5760 5758 5756 5754 5752 5750 5748 5746 5745 5743 5742 5739 5737 5736 5734 5732 5731 5729 5728 5727 5725 5723 5721 5719 5717 5715 5711 5713 5714 5714 5714 5713 5713 5712 5712 5712 5711
5772 5769 5766 5763 5761 5759 5757 5755 5754 5751 5750 5748 5746 5743 5741 5740 5738 5736 5734 5733 5731 5729 5728 5726 5724 5724 5721 5719 5717 5715 5714 5712 5709 5707 5708 5708 5708 5708 5707 5706 5706 5706 5706
5770 5766 5763 5760 5758 5756 5754 5753 5750 5748 5746 5744 5742 5740 5737 5735 5733 5732 5730 5729 5728 5726 5725 5722 5721 5719 5717 5715 5713 5711 5710 5708 5705 5703 5703 5703 5702 5702 5700 5700 5700 5699 5700
5767 5763 5760 5758 5756 5753 5751 5749 5747 5745 5743 5741 5739 5737 5734 5731 5729 5727 5726 5725 5724 5723 5721 5719 5717 5715 5713 5711 5709 5707 5705 5702 5700 5698 5697 5696 5696 5695 5693 5692 5692 5693 5693
5763 5760 5758 5756 5753 5750 5748 5745 5743 5741 5739 5737 5735 5733 5730 5729 5726 5723 5721 5720 5719 5718 5717 5715 5714 5712 5710 5708 5706 5703 5700 5697 5695 5692 5691 5690 5689 5687 5686 5686 5685 5685 5686
5758 5755 5753 5751 5749 5746 5744 5741 5738 5736 5734 5732 5730 5728 5725 5724 5722 5720 5717 5715 5714 5712 5711 5711 5710 5708 5706 5704 5702 5700 5697 5693 5690 5688 5686 5684 5683 5682 5680 5679 5677 5677 5677
5754 5751 5748 5746 5744 5741 5740 5737 5734 5731 5729 5727 5725 5723 5720 5719 5717 5715 5713 5711 5709 5707 5705 5704 5703 5703 5700 5698 5696 5694 5691 5689 5687 5684 5681 5679 5677 5676 5674 5672 5671 5670 5669
5750 5747 5744 5741 5739 5737 5734 5732 5729 5727 5724 5722 5720 5719 5716 5714 5712 5710 5708 5705 5704 5702 5699 5697 5696 5694 5694 5691 5689 5687 5684 5682 5680 5678 5676 5674 5672 5670 5668 5666 5664 5663 5663
5746 5743 5740 5737 5734 5732 5729 5727 5725 5722 5720 5718 5716 5713 5710 5708 5706 5704 5702 5700 5697 5695 5694 5691 5689 5687 5686 5683 5681 5679 5676 5674 5673 5671 5669 5666 5664 5662 5659 5657 5655 5654 5653
5740 5738 5736 5733 5730 5727 5725 5723 5720 5718 5715 5713 5710 5708 5705 5703 5700 5698 5696 5694 5691 5688 5686 5684 5682 5679 5677 5674 5672 5670 5667 5666 5664 5662 5660 5658 5656 5655 5652 5650 5648 5646 5644
5735 5733 5730 5727 5725 5723 5720 5718 5715 5712 5709 5706 5704 5702 5699 5697 5694 5691 5689 5686 5683 5681 5679 5676 5674 5672 5669 5666 5664 5662 5660 5658 5655 5654 5652 5650 5649 5647 5645 5643 5641 5639 5638
5729 5726 5724 5722 5720 5719 5714 5712 5709 5706 5703 5700 5697 5695 5692 5690 5687 5684 5682 5679 5676 5673 5671 5669 5666 5663 5660 5658 5656 5654 5652 5650 5647 5646 5644 5643 5642 5640 5638 5636 5634 5632 5631
5721 5719 5717 5716 5714 5712 5709 5706 5703 5700 5697 5694 5691 5688 5685 5683 5680 5677 5674 5671 5668 5666 5664 5661 5658 5655 5653 5650 5648 5646 5644 5642 5639 5637 5635 5634 5633 5632 5630 5628 5626 5624 5623
5713 5711 5710 5708 5706 5705 5702 5700 5697 5694 5691 5688 5685 5682 5679 5675 5672 5669 5666 5663 5660 5658 5656 5653 5650 5647 5645 5642 5640 5638 5636 5633 5631 5629 5627 5626 5624 5623 5622 5620 5618 5616 5615
5705 5703 5701 5700 5698 5696 5695 5693 5691 5688 5685 5681 5678 5675 5671 5668 5666 5662 5659 5656 5653 5650 5647 5643 5641 5639 5636 5634 5631 5629 5627 5624 5622 5620 5618 5616 5615 5614 5612 5610 5609 5607 5606
5697 5695 5693 5691 5689 5688 5685 5683 5681 5679 5677 5674 5671 5667 5665 5662 5658 5654 5651 5648 5645 5641 5637 5635 5632 5629 5627 5625 5622 5619 5617 5615 5613 5611 5609 5607 5606 5605 5603 5601 5599 5597 5596
5689 5687 5685 5683 5681 5679 5677 5675 5672 5669 5667 5665 5662 5659 5656 5653 5649 5645 5642 5638 5635 5633 5630 5627 5623 5621 5618 5616 5614 5611 5609 5606 5604 5601 5600 5598 5596 5595 5593 5592 5590 5587 5586
5681 5680 5678 5676 5674 5670 5668 5666 5664 5661 5659 5656 5653 5650 5647 5643 5640 5636 5632 5629 5626 5624 5622 5619 5616 5613 5611 5608 5606 5603 5601 5598 5595 5593 5591 5589 5587 5585 5583 5582 5580 5578 5577
5673 5672 5670 5669 5666 5662 5660 5658 5655 5653 5650 5648 5645 5642 5638 5634 5631 5627 5624 5623 5621 5617 5614 5611 5608 5605 5603 5600 5598 5595 5592 5589 5586 5584 5582 5579 5577 5575 5574 5572 5571 5568 5567
5664 5664 5662 5660 5657 5655 5652 5649 5647 5644 5642 5639 5637 5635 5631 5626 5623 5620 5617 5615 5613 5610 5607 5604 5601 5597 5594 5592 5589 5586 5583 5581 5578 5576 5573 5571 5569 5567 5565 5564 5563 5561 5560
5656 5655 5654 5652 5649 5648 5645 5642 5639 5636 5634 5632 5630 5628 5624 5621 5618 5615 5611 5609 5606 5604 5600 5597 5594 5590 5586 5583 5580 5577 5575 5572 5569 5567 5564 5562 5560 5558 5557 5556 5555 5553 5552
5648 5647 5645 5643 5641 5639 5637 5634 5632 5630 5628 5625 5622 5619 5615 5613 5610 5608 5605 5602 5600 5597 5594 5590 5586 5582 5579 5575 5572 5569 5567 5564 5561 5558 5556 5553 5551 5550 5548 5547 5546 5545 5544
5640 5638 5637 5636 5634 5632 5630 5628 5625 5623 5621 5619 5616 5613 5609 5606 5603 5601 5598 5596 5592 5589 5586 5583 5579 5575 5571 5568 5565 5562 5559 5557 5554 5551 5548 5546 5543 5541 5539 5538 5537 5536 5535
5634 5632 5630 5629 5626 5624 5623 5621 5619 5617 5615 5612 5609 5607 5604 5600 5597 5595 5592 5589 5585 5581 5578 5575 5572 5568 5565 5561 5558 5555 5552 5549 5546 5543 5540 5538 5536 5533 5531 5530 5528 5527 5526
5626 5624 5623 5621 5619 5617 5616 5614 5612 5610 5608 5605 5603 5600 5597 5594 5591 5588 5585 5581 5577 5574 5571 5567 5564 5561 5558 5554 5551 5548 5545 5542 5538 5535 5533 5530 5528 5525 5523 5521 5520 5519 5518
5618 5617 5616 5614 5612 5610 5608 5606 5605 5603 5601 5598 5596 5593 5590 5587 5584 5581 5578 5574 5570 5567 5564 5561 5557 5554 5551 5548 5544 5541 5538 5534 5531 5528 5525 5523 5520 5517 5514 5512 5511 5510 5509